Location: Unspecified
(0.0000°N, 0.0000°E)
Time: 00:00:07
(UTC+00:00)

DMSP B5D2-3 - Pass Details

Date: 06 June 2023
Orbit: 818 x 838 km, 98.7° (Epoch: 28 September)

Event Time Altitude Azimuth Distance (km) Brightness Sun altitude
Rises 05:16:19 0° 152° (SSE) 3,379 8.4 -9.8°
Reaches altitude 10° 05:18:51 10° 144° (SE) 2,440 7.8 -9.2°
Maximum altitude 05:23:47 37° 77° (ENE) 1,267 6.9 -8.0°
Drops below altitude 10° 05:28:41 10° 11° (NNE) 2,419 8.1 -6.9°
Sets 05:31:10 0° 3° (N) 3,346 8.7 -6.3°
